This is the latest recevied weather packets stored in our database for station/object KB0BS-13. If no packets are shown the sender has not sent any weather packets the latest 10 day(s).
| Time | Temp. | Humidity | Pressure | Rain* | Wind** | Luminosity | Snow |
|---|---|---|---|---|---|---|---|
| 1777415256 | 7.22° C | 87% | 1011.7 hPa | 0 mm | - | 89 W/m² | - |
| 1777414951 | 7.22° C | 87% | 1011.5 hPa | 0 mm | - | 72 W/m² | - |
| 1777414650 | 7.22° C | 88% | 1011.1 hPa | 0 mm | - | 77 W/m² | - |
| 1777414346 | 7.78° C | 88% | 1011.1 hPa | 0 mm | - | 73 W/m² | - |
| 1777414040 | 8.33° C | 87% | 1011.1 hPa | 0 mm | - | 71 W/m² | - |
| 1777413735 | 8.33° C | 87% | 1010.8 hPa | 0 mm | - | 107 W/m² | - |
| 1777413431 | 8.33° C | 87% | 1010.8 hPa | 0 mm | - | 105 W/m² | - |
| 1777413128 | 8.89° C | 86% | 1010.5 hPa | 0 mm | - | 108 W/m² | - |
| 1777412823 | 8.89° C | 88% | 1010.5 hPa | 0 mm | - | 155 W/m² | - |
| 1777412521 | 8.89° C | 88% | 1010.3 hPa | 0 mm | - | 167 W/m² | - |
| 1777412219 | 8.89° C | 91% | 1010.2 hPa | 0 mm | - | 207 W/m² | - |
| 1777411916 | 8.33° C | 92% | 1010.3 hPa | 0 mm | - | 200 W/m² | - |
| 1777411615 | 8.33° C | 93% | 1010.3 hPa | 0 mm | - | 128 W/m² | - |
| 1777411310 | 8.33° C | 93% | 1010.2 hPa | 0 mm | - | 55 W/m² | - |
| 1777411009 | 8.33° C | 91% | 1010.2 hPa | 0 mm | - | 29 W/m² | - |
| 1777410709 | 8.33° C | 92% | 1010.3 hPa | 0 mm | - | 38 W/m² | - |
| 1777410404 | 8.33° C | 91% | 1010.1 hPa | 0 mm | - | 38 W/m² | - |
| 1777410103 | 8.33° C | 91% | 1010.1 hPa | 0 mm | - | 40 W/m² | - |
| 1777409798 | 8.89° C | 92% | 1009.8 hPa | 0 mm | - | 37 W/m² | - |
| 1777409494 | 8.89° C | 92% | 1009.7 hPa | 0 mm | - | 56 W/m² | - |
| 1777409190 | 8.89° C | 91% | 1009.7 hPa | 0 mm | - | 133 W/m² | - |
| 1777408886 | 8.89° C | 92% | 1009.5 hPa | 0 mm | - | 168 W/m² | - |
| 1777408582 | 8.89° C | 93% | 1009.7 hPa | 0 mm | - | 154 W/m² | - |
| 1777408278 | 8.89° C | 92% | 1009.6 hPa | 0 mm | - | 102 W/m² | - |
| 1777407978 | 8.89° C | 92% | 1009.6 hPa | 0 mm | - | 60 W/m² | - |
* Rain latest hour (hover to see other rain measurements)
** Current wind speed in m/s (hover to see current wind gust speed)